Regional Weather Roundup
Issued by NWS New Orleans/Baton Rouge, LA

Home | Current Version | Previous Version | Graphics & Text | Print | Product List | Glossary On
Versions: 1 2 3 4 5 6 7 8 9 10 11 12 13 14 15 16 17 18 19 20 21 22 23 24 25 26 27 28 29 30 31 32 33 34 35 36 37 38 39 40 41 42 43 44 45 46 47 48 49 50
296
ASUS44 KLIX 231010
RWRLIX
NEW ORLEANS REGIONAL WEATHER ROUNDUP
NATIONAL WEATHER SERVICE NEW ORLEANS LA
400 AM CST SUN NOV 23 2014

NOTE: "FAIR" INDICATES FEW OR NO CLOUDS BELOW 12,000 FEET WITH NO
      SIGNIFICANT WEATHER AND/OR OBSTRUCTIONS TO VISIBILITY.
      SKY/WX - SKY CONDITION AND SIGNIFICANT WEATHER.
      TMP - AIR TEMPERATURE.     DP    - DEWPOINT TEMPERATURE.
      RH  - RELATIVE HUMIDITY.   PRES  - PRESSURE.
      HI  - HEAT INDEX.          WCI   - WIND CHILL INDEX.

*  THESE STATIONS ARE NOT NWS OR FAA STATIONS AND ARE NOT UNDER
   NWS QUALITY CONTROL.

LAZ038-040-048-061>063-065>067-069-231100-
SOUTHEAST LOUISIANA

CITY           SKY/WX    TMP DP  RH WIND       PRES   REMARKS
N.O. AUDUBON     N/A     61  62 100 MISG        N/A
N.O. INTL ARPT CLOUDY    63  60  90 E7        29.76F FOG
N.O. LAKEFRONT LGT RAIN  62  60  93 E12       29.77F
N.O. DOWNTOWN* CLOUDY    61  55  82 NE6       29.77F
SLIDELL        CLOUDY    64  62  93 E6        29.77S
BATON ROUGE    LGT RAIN  63  62  97 E10       29.74F
BOOTHVILLE     MOCLDY    66  66 100 SE7       29.74F
BELLE CHASSE   CLOUDY    63  59  87 NE7       29.75F
BOGALUSA*        N/A     63  60  90 E5        29.80F FOG
NEW ROADS*     LGT RAIN  64  63  97 E8        29.73F
GONZALES*      CLOUDY    64  64 100 E7        29.74F
HAMMOND*       CLOUDY    64  61  88 E6        29.79S
HOUMA*         CLOUDY    65  65  97 E10G17    29.72F
PORT FOURCHON* PTSUNNY   68  66  94 SE13      29.74F

$$

MSZ070-080>082-231100-
SOUTHERN MISSISSIPPI

CITY           SKY/WX    TMP DP  RH WIND       PRES   REMARKS
MCCOMB         CLOUDY    61  59  93 SE7       29.78F
GULFPORT       CLOUDY    63  63 100 E8        29.78F FOG
BILOXI         CLOUDY    63  63 100 E10       29.78F FOG
PASCAGOULA     LGT RAIN  64  63  96 NE7       29.80F FOG

$$

COASTAL OBSERVATIONS
LAKE AND NEARSHORE STATIONS

STATION/POSITION TIME  TEMP    WIND        PRES    WAVE
                       AIR SEA DIR/SP/G            HT/PER
                 (UTC) (F)     (DEG/KT/KT) (MB)    (FT/S)
PASCAGOULA       1000   64      70/ 12/ 15 1008.2
WAVELAND YACHT   1000   64     100/ 12/ 14 1007.2
GRAND ISLE       1000   67 62  110/  4/ 10 1007.2
SOUTHWEST PASS   1000   69 72              1007.7
NEW CANAL        1000   62 54   30/  1/  3 1008.1
SHELL BEACH      1000   60 53   90/  7/ 10 1007.7

OFFSHORE STATIONS

STATION/POSITION TIME  TEMP    WIND        PRES    WAVE
                       AIR SEA DIR/SP/G            HT/PER
                 (UTC) (F)     (DEG/KT/KT) (MB)    (FT/S)
64 S DAUPHIN ISL 0932   73 72  160/ 14/ 17 1008.8    7/ 8

$$




USA.gov is the U.S. government's official web portal to all federal, state and local government web resources and services.